Home > Weather > Tuzla > Past weeks

Flag for Bosnia-Herzegovina Weather for the Past 2 Weeks in Tuzla, Bosnia-Herzegovina

Now
43 °F

Passing clouds.


Feels Like: 38 °F
Forecast: 36 / 62 °F
Wind: 8 mph from East

Location: Tuzla

Current Time: Feb 13, 2016 at 5:47:02 AM

Latest Report: Feb 13, 2016 at 5:00 AM


Visibility: N/A

Pressure: 29.36 "Hg

Humidity: 93%

Dew point: 41 °F

Location of TuzlaLocation

Historic Weather in Tuzla — Graph

°F

Tuzla Temperature Yesterday

Maximum temperature yesterday: 55 °F (at 1:30 PM)
Minimum temperature yesterday: 28 °F (at 6:00 AM)
Average temperature yesterday: 44 °F

High & Low Weather Summary for the Past Weeks

 TemperatureHumidityPressure
High66 °F (Feb 1, 1:30 PM)100% (Jan 29, 4:30 AM)30.48 "Hg (Jan 29, 4:30 AM)
Low19 °F (Feb 6, 6:00 AM)33% (Feb 12, 1:30 PM)29.24 "Hg (Feb 10, 9:00 AM)
Average44 °F79%30.07 "Hg
* Reported Jan 29 4:30 AM — Feb 13 4:30 AM, Tuzla, Weather by CustomWeather, © 2016

Note: Actual official high and low records may vary slightly from our data, if they occured in-between our weather recording intervals... More about our weather records

Advertising

Tuzla Weather History for the Previous 24 Hours

 ConditionsComfort  
Time TempWeatherWind HumidityBarometerVisibility
4:30 AM
Sat, Feb 13
39 °FPassing clouds.5 mph100%29.39 "HgN/A
10:30 PM
Fri, Feb 12
41 °FClear.10 mph66%29.59 "Hg10 mi
10:00 PM45 °FPassing clouds.7 mph57%29.59 "HgN/A
9:30 PM45 °FPassing clouds.6 mph57%29.59 "HgN/A
9:00 PM48 °FPassing clouds.7 mph54%29.62 "HgN/A
8:30 PM45 °FClear.8 mph61%29.62 "Hg10 mi
8:00 PM46 °FClear.7 mph57%29.62 "Hg10 mi
7:30 PM43 °FClear.7 mph66%29.62 "Hg10 mi
7:00 PM46 °FClear.6 mph53%29.65 "Hg10 mi
6:30 PM46 °FClear.2 mph53%29.65 "Hg10 mi
6:00 PM48 °FPassing clouds.7 mph50%29.65 "HgN/A
5:30 PM50 °FPassing clouds.9 mph47%29.62 "HgN/A
5:00 PM48 °FPassing clouds.7 mph54%29.65 "HgN/A
4:30 PM52 °FPassing clouds.6 mph47%29.65 "HgN/A
4:00 PM55 °FPassing clouds.6 mph38%29.65 "HgN/A
3:30 PM55 °FPassing clouds.8 mph36%29.65 "HgN/A
3:00 PM55 °FSunny.5 mph36%29.68 "Hg10 mi
2:30 PM55 °FPassing clouds.6 mph33%29.68 "HgN/A
2:00 PM55 °FPassing clouds.7 mph33%29.68 "HgN/A
1:30 PM55 °FScattered clouds.2 mph33%29.68 "HgN/A
1:00 PM54 °FScattered clouds.3 mph35%29.71 "HgN/A
12:30 PM50 °FScattered clouds.5 mph47%29.74 "HgN/A
12:00 PM50 °FScattered clouds.6 mph43%29.74 "HgN/A
11:30 AM50 °FPassing clouds.6 mph47%29.77 "HgN/A
11:00 AM48 °FSunny.7 mph50%29.77 "Hg10 mi
10:30 AM46 °FSunny.6 mph53%29.77 "Hg10 mi
10:00 AM45 °FSunny.7 mph66%29.80 "Hg10 mi
9:30 AM41 °FSunny.3 mph100%29.80 "Hg10 mi
9:00 AM36 °FSunny.1 mph100%29.80 "Hg10 mi
8:30 AM32 °FSunny.1 mph100%29.80 "Hg10 mi
8:00 AM32 °FSunny.1 mph100%29.83 "Hg10 mi
7:30 AM28 °FSunny.1 mph100%29.83 "Hg10 mi
7:00 AM28 °FSunny.1 mph100%29.83 "Hg10 mi
6:00 AM28 °FClear.2 mph100%29.83 "Hg10 mi
5:30 AM30 °FClear.2 mph100%29.83 "Hg10 mi
5:00 AM30 °FClear.2 mph100%29.83 "Hg4 mi
Weather by CustomWeather, © 2016

See weather overviewHow to use our weather pages